| time (UTC) | temp F | wind direction | speed MPH | gust MPH | rain 1hr in | rain 24hr in | rain mn in | humidity % | barometer mb |
| 20260507113055 | 37 | 123 | 0.0 | 2.0 | 0.00 | 0.00 | 0.00 | 80 | 1012.4 |
| 20260507111551 | 37 | 134 | 0.0 | 1.0 | 0.00 | 0.00 | 0.00 | 82 | 1012.2 |
| 20260507110050 | 36 | 134 | 0.0 | 1.0 | 0.00 | 0.00 | 0.00 | 83 | 1012.0 |
| 20260507104555 | 35 | 143 | 0.0 | 2.0 | 0.00 | 0.00 | 0.00 | 84 | 1012.0 |
| 20260507103049 | 35 | 133 | 0.0 | 1.0 | 0.00 | 0.00 | 0.00 | 84 | 1011.9 |
| 20260507101550 | 35 | 136 | 0.0 | 1.0 | 0.00 | 0.00 | 0.00 | 85 | 1011.9 |
| 20260507100046 | 34 | 138 | 0.0 | 2.0 | 0.00 | 0.00 | 0.00 | 85 | 1011.9 |
| 20260507094544 | 35 | 138 | 0.0 | 1.0 | 0.00 | 0.00 | 0.00 | 84 | 1011.8 |
| 20260507093043 | 35 | 143 | 0.0 | 1.0 | 0.00 | 0.00 | 0.00 | 84 | 1012.0 |
| 20260507091544 | 35 | 143 | 0.0 | 1.0 | 0.00 | 0.00 | 0.00 | 83 | 1012.0 |
| 20260507090038 | 35 | 131 | 0.0 | 1.0 | 0.00 | 0.00 | 0.00 | 82 | 1011.9 |
| 20260507084535 | 36 | 134 | 0.0 | 1.0 | 0.00 | 0.00 | 0.00 | 80 | 1011.9 |
| 20260507083032 | 37 | 148 | 0.0 | 2.0 | 0.00 | 0.00 | 0.00 | 78 | 1012.0 |
| 20260507081530 | 37 | 136 | 0.0 | 1.0 | 0.00 | 0.00 | 0.00 | 76 | 1011.9 |
| 20260507080026 | 38 | 139 | 0.0 | 1.0 | 0.00 | 0.00 | 0.00 | 74 | 1011.9 |
| 20260507074525 | 39 | 148 | 0.0 | 2.0 | 0.00 | 0.00 | 0.00 | 73 | 1012.0 |
| 20260507073025 | 39 | 168 | 0.0 | 3.0 | 0.00 | 0.00 | 0.00 | 72 | 1012.0 |
| 20260507071521 | 39 | 134 | 0.0 | 4.0 | 0.00 | 0.00 | 0.00 | 70 | 1012.1 |
| 20260507070016 | 40 | 131 | 0.0 | 4.0 | 0.00 | 0.00 | 0.00 | 69 | 1012.5 |
| 20260507064513 | 41 | 63 | 0.0 | 5.0 | 0.00 | 0.00 | 0.00 | 67 | 1012.8 |
| 20260507063024 | 41 | 48 | 4.0 | 9.0 | 0.00 | 0.00 | 0.00 | 64 | 1012.8 |
| 20260507061510 | 41 | 49 | 5.0 | 9.0 | 0.00 | 0.00 | 0.00 | 66 | 1012.8 |
| 20260507060017 | 42 | 46 | 4.0 | 10.0 | 0.00 | 0.00 | 0.00 | 66 | 1012.7 |
| 20260507054503 | 43 | 57 | 3.0 | 14.0 | 0.00 | 0.00 | 0.00 | 67 | 1012.7 |
| 20260507053005 | 44 | 47 | 9.0 | 12.0 | 0.00 | 0.00 | 0.00 | 69 | 1012.7 |
| 20260507051501 | 43 | 37 | 6.0 | 8.0 | 0.00 | 0.00 | 0.00 | 70 | 1012.9 |
| 20260507044559 | 45 | 40 | 10.0 | 12.0 | 0.00 | 0.00 | 0.00 | 72 | 1012.8 |
| 20260507043056 | 45 | 25 | 10.0 | 11.0 | 0.00 | 0.00 | 0.00 | 74 | 1012.8 |
| 20260507041552 | 44 | 340 | 7.0 | 8.0 | 0.00 | 0.00 | 0.00 | 83 | 1012.7 |
| 20260507040048 | 42 | 81 | 0.0 | 1.0 | 0.00 | 0.00 | 0.00 | 74 | 1012.6 |
| 20260507034547 | 42 | 113 | 0.0 | 2.0 | 0.00 | 0.00 | 0.00 | 77 | 1012.7 |
| 20260507033047 | 41 | 127 | 0.0 | 0.0 | 0.00 | 0.00 | 0.00 | 78 | 1012.6 |
| 20260507031546 | 41 | 127 | 0.0 | 0.0 | 0.00 | 0.00 | 0.00 | 77 | 1012.7 |
| 20260507030046 | 41 | 127 | 0.0 | 0.0 | 0.00 | 0.00 | 0.00 | 78 | 1012.8 |
| 20260507024544 | 41 | 127 | 0.0 | 0.0 | 0.00 | 0.00 | 0.00 | 79 | 1012.7 |
| 20260507023043 | 42 | 127 | 0.0 | 0.0 | 0.00 | 0.00 | 0.00 | 78 | 1012.6 |
| 20260507021544 | 41 | 127 | 0.0 | 0.0 | 0.00 | 0.00 | 0.00 | 77 | 1012.7 |
| 20260507020044 | 41 | 127 | 0.0 | 0.0 | 0.00 | 0.00 | 0.00 | 81 | 1012.5 |
| 20260507014549 | 41 | 127 | 0.0 | 0.0 | 0.00 | 0.00 | 0.00 | 82 | 1012.7 |
| 20260507013050 | 41 | 127 | 0.0 | 0.0 | 0.00 | 0.00 | 0.00 | 79 | 1012.6 |
| 20260507011543 | 41 | 127 | 0.0 | 0.0 | 0.00 | 0.00 | 0.00 | 78 | 1012.6 |
| 20260507010053 | 41 | 127 | 0.0 | 0.0 | 0.00 | 0.00 | 0.00 | 79 | 1012.7 |
| 20260507004540 | 41 | 11 | 0.0 | 0.0 | 0.00 | 0.00 | 0.00 | 79 | 1012.8 |
| 20260507003039 | 42 | 12 | 0.0 | 0.0 | 0.00 | 0.00 | 0.00 | 78 | 1012.8 |
| 20260507001539 | 43 | 4 | 0.0 | 0.0 | 0.00 | 0.00 | 0.00 | 75 | 1012.6 |
| 20260507000038 | 43 | 13 | 0.0 | 0.0 | 0.00 | 0.00 | 0.00 | 72 | 1012.3 |
| 20260506234538 | 43 | 328 | 0.0 | 1.0 | 0.00 | 0.00 | 0.00 | 73 | 1012.4 |
| 20260506233054 | 44 | 340 | 0.0 | 2.0 | 0.00 | 0.00 | 0.00 | 71 | 1012.4 |
| 20260506231540 | 45 | 322 | 1.0 | 2.0 | 0.00 | 0.00 | 0.00 | 71 | 1012.6 |
| 20260506230036 | 44 | 316 | 0.0 | 1.0 | 0.00 | 0.00 | 0.00 | 71 | 1012.7 |
| 20260506224536 | 44 | 316 | 0.0 | 2.0 | 0.00 | 0.00 | 0.00 | 72 | 1012.8 |
| 20260506223035 | 43 | 15 | 0.0 | 3.0 | 0.00 | 0.00 | 0.00 | 72 | 1012.7 |
| 20260506221535 | 44 | 332 | 0.0 | 3.0 | 0.00 | 0.00 | 0.00 | 70 | 1012.8 |
| 20260506220033 | 44 | 16 | 2.0 | 4.0 | 0.00 | 0.00 | 0.00 | 72 | 1012.7 |
| 20260506214532 | 43 | 13 | 2.0 | 4.0 | 0.00 | 0.00 | 0.00 | 73 | 1012.6 |
| 20260506213031 | 43 | 4 | 4.0 | 7.0 | 0.00 | 0.00 | 0.00 | 72 | 1012.6 |
| 20260506211531 | 42 | 351 | 4.0 | 7.0 | 0.00 | 0.00 | 0.00 | 72 | 1012.4 |
| 20260506210035 | 42 | 20 | 6.0 | 9.0 | 0.00 | 0.00 | 0.00 | 73 | 1012.5 |
| 20260506204529 | 41 | 21 | 9.0 | 11.0 | 0.00 | 0.00 | 0.00 | 76 | 1012.4 |
| 20260506203028 | 41 | 16 | 10.0 | 11.0 | 0.00 | 0.00 | 0.00 | 76 | 1012.4 |
| 20260506201531 | 40 | 19 | 10.0 | 12.0 | 0.00 | 0.00 | 0.00 | 75 | 1012.5 |
| 20260506200037 | 40 | 19 | 8.0 | 11.0 | 0.00 | 0.00 | 0.00 | 74 | 1012.9 |
| 20260506194525 | 40 | 33 | 9.0 | 12.0 | 0.00 | 0.00 | 0.00 | 77 | 1012.7 |
| 20260506193028 | 39 | 33 | 10.0 | 11.0 | 0.00 | 0.00 | 0.00 | 76 | 1012.9 |
| 20260506191523 | 39 | 357 | 10.0 | 12.0 | 0.00 | 0.00 | 0.00 | 75 | 1012.8 |
| 20260506190023 | 39 | 354 | 8.0 | 11.0 | 0.00 | 0.00 | 0.00 | 77 | 1013.1 |
| 20260506184522 | 39 | 347 | 9.0 | 13.0 | 0.00 | 0.00 | 0.00 | 78 | 1013.4 |
| 20260506183021 | 39 | 340 | 8.0 | 13.0 | 0.00 | 0.00 | 0.00 | 80 | 1013.4 |
| 20260506181520 | 38 | 345 | 9.0 | 12.0 | 0.00 | 0.00 | 0.00 | 80 | 1013.3 |
| 20260506180019 | 38 | 350 | 8.0 | 12.0 | 0.00 | 0.00 | 0.00 | 83 | 1013.1 |
| 20260506174515 | 38 | 336 | 7.0 | 10.0 | 0.00 | 0.02 | 0.00 | 84 | 1013.0 |
| 20260506173021 | 38 | 335 | 9.0 | 13.0 | 0.00 | 0.02 | 0.00 | 83 | 1013.0 |
| 20260506171514 | 38 | 343 | 11.0 | 15.0 | 0.00 | 0.02 | 0.00 | 84 | 1012.9 |
| 20260506170012 | 39 | 354 | 11.0 | 14.0 | 0.00 | 0.02 | 0.00 | 84 | 1013.0 |
| 20260506164511 | 39 | 353 | 11.0 | 15.0 | 0.00 | 0.02 | 0.00 | 84 | 1012.7 |
| 20260506163008 | 39 | 345 | 13.0 | 16.0 | 0.00 | 0.02 | 0.00 | 84 | 1012.6 |
| 20260506161507 | 39 | 341 | 12.0 | 18.0 | 0.00 | 0.02 | 0.00 | 86 | 1012.4 |
| 20260506160013 | 39 | 349 | 14.0 | 17.0 | 0.00 | 0.02 | 0.00 | 85 | 1012.4 |
| 20260506154503 | 40 | 336 | 14.0 | 19.0 | 0.00 | 0.02 | 0.00 | 85 | 1012.3 |
| 20260506153000 | 40 | 340 | 15.0 | 19.0 | 0.00 | 0.02 | 0.00 | 83 | 1011.9 |
| 20260506151600 | 41 | 8 | 15.0 | 20.0 | 0.00 | 0.02 | 0.00 | 84 | 1011.7 |
| 20260506151500 | 41 | 350 | 15.0 | 20.0 | 0.00 | 0.02 | 0.00 | 82 | 1011.7 |
| 20260506150056 | 41 | 339 | 17.0 | 22.0 | 0.00 | 0.02 | 0.00 | 83 | 1011.4 |
| 20260506144657 | 41 | 338 | 17.0 | 23.0 | 0.00 | 0.02 | 0.00 | 82 | 1011.2 |
| 20260506143051 | 41 | 342 | 19.0 | 22.0 | 0.00 | 0.02 | 0.00 | 83 | 1010.8 |
| 20260506141605 | 40 | 358 | 19.0 | 23.0 | 0.00 | 0.02 | 0.00 | 84 | 1010.6 |
| 20260506140045 | 41 | 341 | 18.0 | 22.0 | 0.00 | 0.02 | 0.00 | 85 | 1010.3 |
| 20260506134542 | 42 | 12 | 20.0 | 24.0 | 0.00 | 0.02 | 0.00 | 79 | 1010.1 |
| 20260506133040 | 42 | 9 | 19.0 | 24.0 | 0.00 | 0.02 | 0.00 | 80 | 1010.0 |
| 20260506131540 | 42 | 1 | 19.0 | 23.0 | 0.00 | 0.02 | 0.00 | 80 | 1010.0 |
| 20260506130039 | 42 | 360 | 20.0 | 25.0 | 0.00 | 0.02 | 0.00 | 80 | 1009.8 |
| 20260506124539 | 42 | 18 | 21.0 | 26.0 | 0.00 | 0.02 | 0.00 | 79 | 1009.6 |
| 20260506123041 | 42 | 16 | 20.0 | 26.0 | 0.00 | 0.02 | 0.00 | 78 | 1009.5 |
| 20260506121533 | 42 | 11 | 21.0 | 23.0 | 0.00 | 0.02 | 0.00 | 79 | 1009.4 |
| 20260506120041 | 42 | 18 | 20.0 | 23.0 | 0.00 | 0.02 | 0.00 | 81 | 1009.0 |
| 20260506114527 | 42 | 343 | 17.0 | 21.0 | 0.00 | 0.02 | 0.00 | 85 | 1008.9 |